Location: Unspecified
(47.2500°N, 0.0000°E)
Time: 15:49:27
(UTC+00:00)

N. Korean satellite - Visible Passes

Search period start: 19 October 2019 00:00
Search period end: 29 October 2019 00:00
Orbit: 455 x 508 km, 97.2° (Epoch: 19 October)

Date Brightness Start Highest point End Pass type
(mag) Time Alt. Az. Time Alt. Az. Time Alt. Az.
19 Oct 9.4 05:14:32 10° NE 05:17:26 23° E 05:20:23 10° SSE visible
20 Oct 10.3 04:50:26 10° ENE 04:51:56 12° E 04:53:27 10° ESE visible
21 Oct 6.9 05:56:46 10° NNE 06:00:23 74° ESE 06:04:01 10° S visible
21 Oct 10.1 18:10:24 10° WSW 18:12:12 14° W 18:14:03 10° WNW visible
22 Oct 8.5 05:31:38 10° NNE 05:35:02 36° E 05:38:26 10° SSE visible
22 Oct 9.1 17:43:46 10° SSW 17:46:42 26° W 17:49:41 10° NW visible
23 Oct 9.7 05:06:54 10° NE 05:09:35 19° E 05:12:16 10° SE visible
24 Oct 10.6 04:43:48 10° E 04:44:03 10° E 04:44:17 10° E visible
25 Oct 7.3 05:48:55 10° NNE 05:52:32 60° E 05:56:11 10° S visible
25 Oct 9.9 18:01:57 10° SW 18:04:16 17° W 18:06:36 10° NW visible
26 Oct 8.9 05:23:53 10° NNE 05:27:09 30° E 05:30:25 10° SSE visible
26 Oct 8.6 17:35:39 10° SSW 17:38:46 32° W 17:41:58 10° NNW visible
27 Oct 10.0 04:59:18 10° NE 05:01:40 16° E 05:04:01 10° SE visible
28 Oct 6.6 06:06:18 10° N 06:09:59 83° WNW 06:13:42 10° SSW visible
28 Oct 10.4 18:21:01 10° WSW 18:21:51 11° W 18:22:42 10° WNW visible
